Location: Red Rock Farm
(35.2100°N, 97.2200°W)
Time: 07:02:48
(UTC-05:00)

Daily predictions for brighter satellites

Satellite Brightness Start Highest point End
(mag) Time Altitude Azimuth Time Altitude Azimuth Time Altitude Azimuth
Cosmos 158 Rocket 4.0 19:03:16 10° S 19:08:13 63° ESE 19:13:20 10° NNE
Cosmos 2297 Rocket 3.9 19:08:28 10° ESE 19:10:20 12° E 19:12:12 10° ENE
ERS-2 2.1 19:07:18 10° SSE 19:10:58 65° ENE 19:14:38 10° N
Cosmos 1048 Rocket 4.0 19:08:57 10° S 19:13:59 58° ESE 19:19:00 10° NNE
GRACE-2 4.3 19:11:44 10° SSE 19:14:05 32° E 19:16:25 10° NNE
APEX 2.6 19:10:55 10° SSW 19:14:14 89° ESE 19:17:06 10° NNE
YAOGAN 1 2.6 19:11:18 10° SSE 19:15:34 60° ENE 19:19:50 10° N
Cosmos 1726 3.1 19:14:38 10° SSE 19:17:44 26° E 19:20:51 10° NNE
CZ-4 R/B 1.6 19:15:14 10° S 19:19:26 80° WSW 19:23:36 10° NNW
GRACE-1 3.9 19:17:18 10° SSE 19:19:46 44° E 19:22:15 10° NNE
SL-24 R/B - RUBIN 2 3.7 19:17:31 10° NNW 19:22:15 83° WSW 19:26:35 10° SSE
ASTRO E2 3.9 19:19:49 10° W 19:23:31 36° SSW 19:27:11 10° SE
Cosmos 1420 Rocket 4.0 19:18:24 10° N 19:23:39 60° ENE 19:28:50 10° SSE
EO 1 Del DPAF 3.2 19:21:00 10° NNE 19:24:52 84° ESE 19:28:42 10° SSW
DELTA 2 R/B (1) 3.6 19:21:45 10° WNW 19:27:21 90° W 19:32:58 10° ESE
Cosmos 2322 3.7 19:23:21 10° NNW 19:29:06 89° ENE 19:34:48 10° SSE
CZ-4 R/B 4.4 19:27:14 10° SSE 19:31:22 85° ENE 19:35:32 10° N
Cosmos 1934 Rocket 4.5 19:27:48 10° SSE 19:33:36 39° E 19:39:25 10° NNE
Cosmos 2219 Rocket 2.9 19:30:19 10° N 19:35:19 32° ENE 19:40:18 10° SE
Cosmos 1821 Rocket 4.1 19:29:25 10° SSE 19:35:23 54° E 19:41:27 10° NNE
METEOR-M 4.1 19:30:39 10° SSE 19:35:57 72° ENE 19:41:18 10° N
Cosmos 2221 2.5 19:31:55 10° S 19:36:12 87° E 19:40:35 10° N
OAO 1 Rocket 4.4 19:31:15 10° W 19:36:34 90° SSW 19:40:46 17° E
ALOS 2.6 19:34:36 10° SE 19:39:00 42° ENE 19:43:24 10° N
Delta 2 Rocket 3.0 19:35:08 10° W 19:39:09 84° S 19:41:39 19° ESE
Cosmos 2239 Rocket 4.5 19:34:44 10° S 19:40:44 60° E 19:46:47 10° NNE
Cosmos 1315 Rocket 3.1 19:38:05 10° NNW 19:42:10 74° W 19:46:17 10° S
Cosmos 921 Rocket 3.5 19:39:54 10° NNW 19:44:17 63° WSW 19:48:32 10° S
Thor Agena Rocket 3.9 19:40:32 10° NNE 19:45:15 39° E 19:49:56 10° SSE
SKYMED 2 3.9 19:41:21 10° N 19:45:40 70° WNW 19:49:58 10° SSW
USA 267 4.3 19:48:34 18° E 19:51:30 25° ESE 19:56:38 10° S
Cosmos 2333 4.2 19:59:19 10° NNW 20:05:04 88° WSW 20:10:51 10° SSE
H-2A R/B 3.2 20:07:18 39° ENE 20:07:24 39° ENE 20:11:04 10° N
Cosmos 2123 Rocket 4.0 20:03:45 10° N 20:09:53 55° E 20:16:01 10° SSE
Aureole 2 Rocket 2.6 20:05:52 10° NNW 20:09:53 78° ENE 20:13:39 12° SSE
Cosmos 1605 Rocket 4.0 20:04:03 10° SSE 20:09:55 51° E 20:15:47 10° NNE
In-Cosmos 22 Rocket 4.4 20:05:18 10° N 20:10:53 48° ENE 20:16:29 10° SSE
Cosmos 2237 Rocket 2.8 20:07:31 10° N 20:12:44 35° ENE 20:13:39 33° E
Cosmos 2227 Rocket 2.1 20:10:50 10° S 20:16:23 63° ESE 20:21:11 14° NNE
SWAS 4.3 20:12:26 10° SSW 20:16:42 84° ESE 20:19:08 25° NNE
Iridium 4 Rocket 4.5 20:15:14 10° SSW 20:20:41 55° W 20:26:26 10° N
Cosmos 1300 3.1 20:17:51 10° SSW 20:21:38 63° W 20:25:26 10° N
SL-16 R/B 4.0 20:21:22 10° NNE 20:23:15 16° NNE 20:23:15 16° NNE
Atlas Centaur 2 3.7 20:22:19 10° WSW 20:25:45 21° SSW 20:28:27 15° SSE
NOSS 0 Rocket 3.8 20:19:37 10° NNW 20:25:45 65° ENE 20:28:59 29° SE
Gbstr 26 Del rocket 3.6 20:22:01 10° NW 20:27:18 79° NE 20:29:43 39° ESE
Cosmos 494 Rocket 3.9 20:22:14 10° SSW 20:27:20 85° WNW 20:32:29 10° NNE
Sich 1 3.1 20:24:49 10° N 20:29:13 78° W 20:33:37 10° S
Cosmos 1980 3.6 20:31:40 10° NNW 20:37:16 62° ENE 20:37:55 58° E
Cosmos 1110 Rocket 3.9 20:34:31 10° NNW 20:39:51 87° ENE 20:41:40 43° SSE
BREEZE-M R/B 3.9 20:39:05 10° W 20:41:04 32° NW 20:41:04 32° NW
CZ-4C R/B 4.1 20:37:18 10° W 20:41:37 25° NW 20:46:24 10° N
Meteor 2-3 Rocket 4.4 20:39:04 10° N 20:42:51 37° NNE 20:42:51 37° NNE
Hubble Space Telescope 2.4 20:42:52 10° SW 20:45:28 26° SSW 20:45:28 26° SSW
USA 32 4.5 20:41:32 10° N 20:45:20 47° NNE 20:45:20 47° NNE
COSMOS 2428 4.3 20:41:54 10° NW 20:46:59 34° WSW 20:52:04 10° SSW
Cosmos 2228 Rocket 3.8 20:42:59 10° S 20:46:04 44° S 20:46:04 44° S
Cosmos 1447 Rocket 4.4 20:41:19 10° N 20:47:22 59° ENE 20:47:22 59° ENE
Cosmos 2333 Rocket 2.4 20:44:21 10° NNW 20:50:05 69° WSW 20:53:15 27° S
Cosmos 2297 Rocket 2.3 20:47:57 10° SSW 20:53:36 75° WNW 20:56:00 36° N
Cosmos 1328 Rocket 4.2 20:51:07 10° SSW 20:55:26 53° W 20:57:03 34° NNW
Cosmos 1633 Rocket 4.2 20:55:16 10° NNW 20:59:27 42° W 21:02:07 20° SSW
Cosmos 2251 Rocket 4.1 20:58:16 10° SSW 21:03:26 54° WNW 21:06:04 28° N
Cosmos 2082 4.1 20:58:29 10° SSW 21:04:09 63° WNW 21:06:19 37° N
Cosmos 2219 Rocket 3.9 21:14:20 10° NW 21:19:07 30° WSW 21:23:28 12° SSW
USA 267 3.6 21:35:57 61° WSW 21:35:57 61° WSW 21:41:18 10° SW
Cosmos 2237 Rocket 4.1 21:51:50 10° NW 21:55:32 26° W 21:55:32 26° W
